EW9824 Weather Reports


Display with metric or nautical units.
time (UTC)temp
F
wind
direction
speed
MPH
gust
MPH
rain 1hr
in
rain 24hr
in
rain mn
in
humidity
%
barometer
mb
20260902230034 56 319 2.0 5.0 0.03 0.10 0.09 93 1011.2
20260902224528 57 7 3.0 5.0 0.03 0.09 0.08 93 1011.0
20260902223032 56 324 2.0 6.0 0.03 0.08 0.08 92 1010.9
20260902221532 57 314 4.0 9.0 0.04 0.08 0.07 91 1010.9
20260902220029 56 269 2.0 6.0 0.04 0.07 0.06 90 1010.8
20260902211532 57 356 1.0 4.0 0.04 0.04 0.03 86 1010.6
20260902204534 57 50 1.0 4.0 0.01 0.01 0.00 81 1010.8
20260902201530 59 199 0.0 4.0 0.00 0.00 0.00 76 1011.1
20260902200029 59 210 2.0 6.0 0.00 0.00 0.00 74 1010.9
20260902194531 59 259 2.0 6.0 0.00 0.00 0.00 72 1010.9
20260902193032 59 240 2.0 7.0 0.00 0.00 0.00 70 1010.9
20260902191532 60 158 1.0 5.0 0.00 0.00 0.00 69 1010.8
20260902190030 60 122 3.0 9.0 0.00 0.00 0.00 73 1010.9
20260902184530 61 344 2.0 5.0 0.00 0.00 0.00 72 1011.1
20260902183107 61 303 1.0 5.0 0.00 0.00 0.00 72 1011.1
20260902181609 61 303 2.0 5.0 0.00 0.00 0.00 72 1010.9
20260902180106 60 285 1.0 4.0 0.00 0.00 0.00 73 1010.9
20260902174531 60 298 2.0 7.0 0.00 0.00 0.00 73 1010.9
20260902173032 61 303 4.0 9.0 0.00 0.00 0.00 72 1010.9
20260902171529 61 291 4.0 7.0 0.00 0.00 0.00 73 1011.0
20260902170029 60 334 4.0 7.0 0.00 0.00 0.00 74 1011.2
20260902164529 59 307 4.0 7.0 0.00 0.00 0.00 74 1011.4
20260902163106 59 334 2.0 6.0 0.00 0.00 0.00 73 1011.7
20260902161532 58 35 1.0 5.0 0.00 0.00 0.00 74 1011.9
20260902154529 55 135 0.0 2.0 0.00 0.00 0.00 81 1012.1
20260902153029 54 141 1.0 5.0 0.00 0.00 0.00 84 1012.3
20260902151530 52 208 1.0 3.0 0.00 0.00 0.00 87 1012.1
20260902150029 51 187 1.0 3.0 0.00 0.00 0.00 88 1012.2
20260902143032 49 198 2.0 4.0 0.00 0.00 0.00 89 1012.3
20260902130032 49 61 2.0 4.0 0.00 0.00 0.00 82 1012.6
20260902124532 51 165 2.0 6.0 0.00 0.00 0.00 80 1012.8
20260902123106 52 3 3.0 7.0 0.00 0.00 0.00 79 1012.7
20260902121531 52 29 3.0 7.0 0.00 0.00 0.00 77 1012.9
20260902120029 54 33 1.0 5.0 0.00 0.00 0.00 74 1012.9
20260902113030 55 334 5.0 11.0 0.00 0.00 0.00 73 1012.9
20260902111531 55 332 5.0 10.0 0.00 0.00 0.00 73 1012.9
20260902110030 55 340 5.0 11.0 0.00 0.00 0.00 74 1013.0
20260902104527 55 344 4.0 10.0 0.00 0.00 0.00 74 1013.1
20260902103029 56 5 3.0 7.0 0.00 0.00 0.00 74 1013.3
20260902101531 56 356 5.0 13.0 0.00 0.00 0.00 73 1013.4
20260902100033 57 330 6.0 12.0 0.00 0.00 0.00 71 1013.4
20260902094531 57 302 6.0 18.0 0.00 0.00 0.00 70 1013.5
20260902093031 57 303 7.0 14.0 0.00 0.00 0.00 70 1013.7
20260902091531 57 308 7.0 14.0 0.00 0.00 0.00 70 1013.7
20260902090031 57 297 6.0 14.0 0.00 0.00 0.00 71 1013.7
20260902084606 57 305 7.0 17.0 0.00 0.00 0.00 71 1013.7
20260902081531 57 325 6.0 14.0 0.00 0.00 0.00 74 1013.8
20260902080029 57 339 5.0 12.0 0.00 0.00 0.00 74 1013.9
20260902073105 57 329 6.0 14.0 0.00 0.00 0.00 74 1014.0
20260902071530 57 326 7.0 13.0 0.00 0.00 0.00 73 1014.1
20260902070029 58 326 7.0 16.0 0.00 0.00 0.00 73 1014.4
20260902064531 58 326 7.0 13.0 0.00 0.00 0.00 73 1014.5
20260902063029 58 331 6.0 13.0 0.00 0.00 0.00 72 1014.7
20260902061531 59 323 6.0 13.0 0.00 0.00 0.00 71 1014.7
20260902060031 59 335 4.0 9.0 0.00 0.00 0.00 70 1014.9
20260902054530 59 292 3.0 11.0 0.00 0.00 0.00 68 1014.9
20260902053030 59 275 4.0 10.0 0.00 0.00 0.00 68 1014.8
20260902051646 59 313 4.0 12.0 0.00 0.00 0.00 69 1014.8
20260902050029 59 286 4.0 15.0 0.00 0.00 0.00 69 1014.6
20260902044601 59 289 3.0 10.0 0.00 0.00 0.00 68 1014.5
20260902043029 60 269 5.0 13.0 0.00 0.00 0.00 68 1014.4
20260902040027 60 279 6.0 12.0 0.00 0.00 0.00 68 1014.1
20260902033029 60 294 7.0 17.0 0.00 0.00 0.00 67 1013.6
20260902031609 60 303 6.0 15.0 0.00 0.00 0.00 66 1013.6
20260902030029 60 277 8.0 21.0 0.00 0.00 0.00 66 1013.6
20260902024530 60 279 6.0 18.0 0.00 0.00 0.00 66 1013.8
20260902023032 61 294 6.0 14.0 0.00 0.00 0.00 65 1013.6
20260902021533 61 283 6.0 16.0 0.00 0.00 0.00 63 1013.9
20260902014532 62 316 6.0 13.0 0.00 0.00 0.00 62 1013.6
20260902013032 63 295 7.0 22.0 0.00 0.00 0.00 61 1013.5
20260902011532 64 306 5.0 12.0 0.00 0.00 0.00 60 1013.3
20260902010109 64 303 7.0 18.0 0.00 0.00 0.00 61 1013.2
20260902004534 64 310 6.0 14.0 0.00 0.00 0.00 63 1013.1
20260902003145 64 318 9.0 20.0 0.00 0.00 0.00 62 1012.9
20260902001532 64 309 7.0 17.0 0.00 0.00 0.00 61 1012.7
20260902000146 65 312 6.0 17.0 0.00 0.00 0.00 62 1012.7
20260901233031 65 335 7.0 16.0 0.00 0.00 0.00 60 1012.6
20260901231531 67 317 9.0 19.0 0.00 0.00 0.00 57 1012.5